Tracking 22836 objects as of 18-Apr-2021
HD Live streaming from Space Station
objects crossing your sky now

DELTA 1 DEB

Track DELTA 1 DEB now!
10-day predictions


NORAD ID: 7141
Int'l Code: 1973-086DF
Perigee: 1,492.1 km
Apogee: 1,535.9 km
Inclination: 102.2 °
Period: 116.1 minutes
Semi major axis: 7885 km
RCS: 0.0598 m2 (small)
Launch date: November 6, 1973
Source: United States (US)
Launch site: AIR FORCE WESTERN TEST RANGE (AFWTR)

Note: This is SATELLITE DEBRIS
aabbcc
Your satellite tracking list
Your tracking list is empty




NASA's NSSDC Master Catalog

Two Line Element Set (TLE):
1 07141U 73086DF  21107.96425584  .00000175  00000-0  16532-2 0  9993
2 07141 102.2341 137.1614 0027790 193.2196 232.7989 12.39936698141177
Source of the keplerian elements: AFSPC